Abbeville, LA

6:51 PM CDT on May 26, 2017 (GMT -0500)
Abbeville

Weather History for KIYA - June, 2013

Change the Weather History Date:

Sunday, June 16, 2013

  Actual Average (KARA) Record (KARA)
Temperature  
Mean Temperature 84 °F -  
Max Temperature 92 °F 86 °F 97 °F (2005)
Min Temperature 77 °F 70 °F 61 °F (1955)
Cooling Degree Days 20    
Growing Degree Days 34 (Base 50)    
Moisture  
Dew Point 71 °F    
Average Humidity 65    
Maximum Humidity 89    
Minimum Humidity 39    
Precipitation  
Precipitation 0.00 in - - ()
Sea Level Pressure  
Sea Level Pressure 30.00 in    
Wind  
Wind Speed 4 mph (SW)    
Max Wind Speed 10 mph    
Max Gust Speed 16 mph    
Visibility 10 miles    
Events      
Averages and records for this station are not official NWS values.
T = Trace of Precipitation, MM = Missing Value Source: NWS Daily Summary

Daily Weather History Graph

Daily Weather History Graph

Search for Another Location

Airport or City:

Trip Planner

Search our weather history database for the weather conditions in past years. The results will help you decide how hot, cold, wet, or windy it might be!

Date:

Astronomy

Jun. 16, 2013 Rise Set
Actual Time 6:07 AM CDT 8:11 PM CDT
Civil Twilight 5:39 AM CDT 8:38 PM CDT
Nautical Twilight 5:06 AM CDT 9:12 PM CDT
Astronomical Twilight 4:30 AM CDT 9:47 PM CDT
Moon 1:12 PM CDT (6/16) 12:44 AM CDT (6/16)
Length of Visible Light 14h 59m
Length of Day
14h 04m
Waxing Crescent, 50% of the Moon is Illuminated
Jun 16
Waxing Crescent
Jun 16
First Quarter
Jun 23
Full
Jun 29
Last Quarter
Jul 8
New

Hourly Weather History & Observations

Time (CDT) Temp. Heat Index Dew Point Humidity Pressure Visibility Wind Dir Wind Speed Gust Speed Precip Events Conditions
12:15 AM 82.6 °F 88.8 °F 73.8 °F 75% 30.00 in 10.0 mi WSW 3.5 mph - N/A   Mostly Cloudy
12:35 AM 82.0 °F 87.9 °F 73.8 °F 76% 30.00 in 10.0 mi WSW 3.5 mph - N/A   Scattered Clouds
12:55 AM 81.7 °F 87.6 °F 74.1 °F 78% 29.99 in 10.0 mi Calm Calm - N/A   Clear
1:15 AM 80.2 °F 85.4 °F 74.8 °F 84% 29.98 in 10.0 mi Calm Calm - N/A   Clear
1:35 AM 79.3 °F - 74.8 °F 86% 29.98 in 10.0 mi Calm Calm - N/A   Clear
1:55 AM 79.7 °F - 75.4 °F 87% 29.98 in 10.0 mi Calm Calm - N/A   Clear
2:15 AM 78.6 °F - 74.8 °F 88% 29.98 in 10.0 mi SSE 3.5 mph - N/A   Scattered Clouds
2:35 AM 78.6 °F - 75.0 °F 89% 29.98 in 10.0 mi Calm Calm - N/A   Clear
2:55 AM 78.1 °F - 74.3 °F 88% 29.98 in 10.0 mi South 3.5 mph - N/A   Clear
3:15 AM 78.3 °F - 74.1 °F 87% 29.97 in 10.0 mi Calm Calm - N/A   Clear
3:35 AM 79.0 °F - 74.3 °F 85% 29.97 in 10.0 mi Calm Calm - N/A   Clear
3:55 AM 79.9 °F - 73.8 °F 81% 29.97 in 10.0 mi SSW 3.5 mph - N/A   Clear
4:15 AM 78.4 °F - 73.6 °F 85% 29.97 in 10.0 mi South 3.5 mph - N/A   Clear
4:35 AM 79.3 °F - 74.3 °F 84% 29.97 in 10.0 mi SSW 3.5 mph - N/A   Clear
4:55 AM 79.3 °F - 73.9 °F 83% 29.98 in 10.0 mi SSW 3.5 mph - N/A   Clear
5:15 AM 78.3 °F - 73.6 °F 85% 29.99 in 10.0 mi Calm Calm - N/A   Clear
5:35 AM 77.9 °F - 73.6 °F 86% 29.99 in 10.0 mi SSW 3.5 mph - N/A   Clear
5:55 AM 78.1 °F - 73.8 °F 86% 30.00 in 10.0 mi Calm Calm - N/A   Clear
6:15 AM 78.8 °F - 73.6 °F 84% 30.01 in 10.0 mi Calm Calm - N/A   Clear
6:35 AM 78.6 °F - 74.3 °F 87% 30.02 in 10.0 mi Calm Calm - N/A   Clear
6:55 AM 79.7 °F - 74.3 °F 83% 30.03 in 10.0 mi Calm Calm - N/A   Clear
7:15 AM 80.8 °F 86.3 °F 74.7 °F 82% 30.03 in 10.0 mi SSW 3.5 mph - N/A   Clear
7:35 AM 82.4 °F 88.7 °F 74.3 °F 76% 30.04 in 10.0 mi Calm Calm - N/A   Clear
7:55 AM 84.0 °F 91.2 °F 73.9 °F 72% 30.05 in 10.0 mi WSW 4.6 mph - N/A   Scattered Clouds
8:35 AM 86.2 °F 93.4 °F 73.0 °F 65% 30.05 in 10.0 mi WSW 6.9 mph - N/A   Clear
8:55 AM 86.9 °F 94.1 °F 72.9 °F 63% 30.05 in 10.0 mi WSW 5.8 mph - N/A   Scattered Clouds
9:15 AM 86.5 °F 92.9 °F 72.0 °F 62% 30.05 in 10.0 mi WSW 5.8 mph - N/A   Mostly Cloudy
9:35 AM 86.7 °F 91.7 °F 70.5 °F 58% 30.05 in 10.0 mi WSW 9.2 mph - N/A   Overcast
10:15 AM 88.9 °F 93.8 °F 70.0 °F 53% 30.05 in 10.0 mi West 4.6 mph - N/A   Clear
10:35 AM 88.3 °F 93.2 °F 70.0 °F 54% 30.04 in 10.0 mi WSW 6.9 mph - N/A   Scattered Clouds
10:55 AM 86.7 °F 93.3 °F 72.1 °F 62% 30.05 in 10.0 mi SSW 8.1 mph 16.1 mph N/A   Mostly Cloudy
11:15 AM 86.9 °F 92.5 °F 70.9 °F 59% 30.04 in 10.0 mi WSW 6.9 mph - N/A   Mostly Cloudy
11:35 AM 88.2 °F 94.6 °F 71.8 °F 58% 30.04 in 10.0 mi SW 5.8 mph - N/A   Scattered Clouds
11:55 AM 89.6 °F 95.7 °F 71.1 °F 54% 30.04 in 10.0 mi West 4.6 mph - N/A   Scattered Clouds
12:15 PM 89.6 °F 93.9 °F 68.7 °F 50% 30.04 in 10.0 mi WSW 6.9 mph - N/A   Mostly Cloudy
12:35 PM 89.6 °F 93.4 °F 68.4 °F 49% 30.03 in 10.0 mi WSW 5.8 mph - N/A   Overcast
12:55 PM 89.8 °F 94.2 °F 68.9 °F 50% 30.03 in 10.0 mi SW 6.9 mph - N/A   Overcast
1:15 PM 89.1 °F 93.3 °F 68.9 °F 51% 30.03 in 10.0 mi SW 6.9 mph - N/A   Overcast
1:35 PM 89.8 °F 94.2 °F 68.9 °F 50% 30.02 in 10.0 mi SW 6.9 mph - N/A   Overcast
1:55 PM 90.9 °F 95.8 °F 69.1 °F 49% 30.02 in 10.0 mi SSW 8.1 mph - N/A   Overcast
2:15 PM 91.8 °F 94.6 °F 66.4 °F 43% 30.01 in 10.0 mi SW 8.1 mph - N/A   Scattered Clouds
2:35 PM 92.3 °F 94.3 °F 64.9 °F 40% 30.01 in 10.0 mi WSW 6.9 mph - N/A   Scattered Clouds
2:55 PM 92.3 °F 94.3 °F 64.9 °F 40% 30.00 in 10.0 mi WSW 9.2 mph - N/A   Scattered Clouds
3:15 PM 92.3 °F 93.8 °F 64.0 °F 39% 30.00 in 10.0 mi SSW 9.2 mph - N/A   Clear
3:35 PM 92.3 °F 93.8 °F 64.4 °F 39% 30.00 in 10.0 mi WSW 10.4 mph - N/A   Clear
3:55 PM 92.3 °F 93.8 °F 64.0 °F 39% 30.00 in 10.0 mi WSW 4.6 mph - N/A   Clear
4:15 PM 92.5 °F 94.6 °F 64.8 °F 40% 30.00 in 10.0 mi SSW 9.2 mph - N/A   Scattered Clouds
4:35 PM 92.3 °F 93.8 °F 64.0 °F 39% 30.00 in 10.0 mi WSW 6.9 mph - N/A   Scattered Clouds
4:55 PM 92.3 °F 94.3 °F 64.9 °F 40% 29.99 in 10.0 mi SW 5.8 mph - N/A   Scattered Clouds
5:15 PM 91.8 °F 93.8 °F 64.8 °F 41% 29.98 in 10.0 mi SW 8.1 mph - N/A   Scattered Clouds
5:35 PM 90.0 °F 92.8 °F 66.6 °F 46% 29.98 in 10.0 mi SW 5.8 mph - N/A   Clear
5:55 PM 90.3 °F 92.2 °F 65.1 °F 43% 29.98 in 10.0 mi WSW 6.9 mph - N/A   Clear
6:15 PM 89.8 °F 92.1 °F 65.7 °F 45% 29.97 in 10.0 mi SSW 6.9 mph - N/A   Clear
6:35 PM 88.7 °F 91.9 °F 67.1 °F 49% 29.97 in 10.0 mi SW 5.8 mph - N/A   Clear
6:55 PM 88.2 °F 91.3 °F 67.3 °F 50% 29.97 in 10.0 mi SSW 4.6 mph - N/A   Clear
7:15 PM 87.4 °F 90.8 °F 68.0 °F 52% 29.98 in 10.0 mi SSW 5.8 mph - N/A   Clear
7:35 PM 86.9 °F 90.6 °F 68.2 °F 54% 29.98 in 10.0 mi SSW 4.6 mph - N/A   Clear
7:55 PM 86.0 °F 89.7 °F 68.7 °F 56% 29.98 in 10.0 mi SSW 4.6 mph - N/A   Clear
8:15 PM 84.7 °F 89.1 °F 69.8 °F 61% 29.98 in 10.0 mi SSW 5.8 mph - N/A   Clear
8:35 PM 84.0 °F 88.4 °F 70.0 °F 63% 29.98 in 10.0 mi SSW 5.8 mph - N/A   Clear
8:55 PM 83.3 °F 87.4 °F 70.2 °F 64% 29.98 in 10.0 mi SSW 5.8 mph - N/A   Clear
9:15 PM 82.4 °F 86.5 °F 70.5 °F 67% 29.98 in 10.0 mi SSW 5.8 mph - N/A   Clear
9:35 PM 82.0 °F 86.3 °F 70.9 °F 69% 30.00 in 10.0 mi South 3.5 mph - N/A   Clear
9:55 PM 79.9 °F - 71.8 °F 76% 30.00 in 10.0 mi South 3.5 mph - N/A   Clear
10:15 PM 80.6 °F 84.9 °F 72.5 °F 76% 30.01 in 10.0 mi SSW 3.5 mph - N/A   Clear
10:35 PM 78.8 °F - 72.5 °F 81% 30.01 in 10.0 mi Calm Calm - N/A   Clear
10:55 PM 78.8 °F - 72.9 °F 82% 30.01 in 10.0 mi South 4.6 mph - N/A   Clear
11:15 PM 79.9 °F - 72.9 °F 79% 30.01 in 10.0 mi South 4.6 mph - N/A   Clear
11:35 PM 80.1 °F 84.1 °F 72.7 °F 78% 30.01 in 10.0 mi South 3.5 mph - N/A   Clear
11:55 PM 80.1 °F 84.1 °F 72.5 °F 78% 30.01 in 10.0 mi Calm Calm - N/A   Clear